Preview of NWS' New Version of Forecast
This preview is not operational and should not be used for support decisions.
Latest weather observations around

Greenville (KGNR)

Using English Units (Switch to International System of Units)
Date/ Time (EST) Wind (mph) Vis. (mi) Weather Sky Cond. Temp (°F) Rel. Humidity Wind Chill (°F) Heat Index (°F) Pressure Precip. (in)
Air Dwpt 6 hour Altimeter (inHg) Sea level (inHg) 1 hr 3 hr 6 hr
Max Min
Feb 22 08:56 NNW 13   Clear   18 9     67% 5   30.55 30.62      
Feb 22 07:56 NNW 9   Clear   18 9     67% 7   30.55 30.62      
Feb 22 06:56 NW 14   Clear   18 9     67% 4   30.53 30.59      
Feb 22 05:56 NNW 10   Clear   18 11     74% 6   30.52 30.58      
Feb 22 04:56 NNW 9   Clear   19 12     74% 8   30.51 30.56      
Feb 22 03:56 NNW 9   Clear   21 11     65% 11   30.49 30.54      
Feb 22 02:56 NW 14   Clear   22 12     65% 9   30.46 30.51      
Feb 22 01:56 NNW 14   Clear   24 14     65% 12   30.43 30.48      
Feb 22 00:56 NNW 17   Clear   26 14     60% 13   30.4 30.45      
Feb 21 23:56     Clear   28 16     60%     30.35 30.4      
Feb 21 22:56     Clear   30 18     60%     30.31 30.35      
Feb 21 21:56 NW 11   Clear   32 24     72% 23   30.28 30.32      
Feb 21 20:56 NW 13   Clear   35 22     58% 26   30.24 30.29      
Feb 21 19:56 NW 16   Clear   38 27     64% 29   30.21 30.25      
Feb 21 18:56 NW 17   Clear   43 36     76% 35   30.14 30.19     0
Feb 21 17:56 NW 20   Clear and Windy   46 40     79% 38   30.1 30.14      
Feb 21 16:56 WNW 16   Clear   51 46     83%     30.03 30.06      
Feb 21 15:56 WNW 9   Clear   53 49     86%     29.96 29.99 0 0  
Feb 21 14:56 NNW 15   Clear   54 47     77%     29.92 29.96      
Feb 21 13:56 ESE 5   Clear   53 47     80%     29.88 29.91      
Feb 21 12:56 SE 7   Clear   51 45     79%     29.9 29.93      
Feb 21 11:56 ESE 6   Clear   50 46     86% 48   29.95 29.98      
Feb 21 10:56 ESE 5   Clear   51 47     86%     29.97 30.01      
Feb 21 09:56 E 5   Clear   45 43     93% 43   30 30.04      
Feb 21 08:56 E 6   Clear   38 38     100% 33   30.02 30.06      
Feb 21 07:56 E 5   Clear   35 35     100% 31   30.03 30.08      
Feb 21 06:56 ESE 5   Clear   33 33     100% 29   30.05 30.09      
Feb 21 05:56 SSE 8   Clear   33 33     100% 26   30.07 30.12      
Feb 21 04:56 SSE 10   Clear   33 33     100% 25   30.07 30.12      
Feb 21 03:56 SE 9   Clear   33 33     100% 25   30.11 30.16      
Feb 21 02:56 SSE 9   Clear   34 34     100% 27   30.12 30.17      
Feb 21 01:56 SE 10   Clear   34 34     100% 26   30.15 30.2      
Feb 21 00:56 SE 8   Clear   34 34     100% 27   30.16 30.22 0   0
Feb 20 23:56 SSE 9   Clear   34 34     100% 27   30.18 30.23 0    
Feb 20 22:56 SSE 8   Clear   34 34     100% 27   30.18 30.23 0    
Feb 20 21:56 SSE 10   Clear   35 35     100% 27   30.19 30.24 0 0  
Feb 20 20:56 SE 11   Clear   35 35     100% 27   30.19 30.24 0    
Feb 20 19:56 SE 8   Clear   35 35     100% 29     30.25 0    
Feb 20 18:56 SE 8   Clear   35 35     100% 29   30.21 30.26     0
Feb 20 17:56 SE 7   Clear   35 35     100% 29   30.2 30.25 0    
Feb 20 16:56 SE 7   Clear   35 35     100% 29   30.19 30.24 0    
Feb 20 15:56 SE 9   Clear   35 35     100% 28   30.18 30.23 0 0  
Feb 20 14:56 SSE 10   Clear   35 35     100% 27   30.17 30.22 0    
Feb 20 13:56 SE 11   Clear   35 35     100% 27   30.18 30.23 0    
Feb 20 12:56 SSE 5   Clear   36 36     100% 32   30.18 30.23 0   0
Feb 20 11:56 ESE 8   Clear   36 35     96% 30   30.2 30.25      
Feb 20 10:56 ESE 6   Clear   36 36     100% 31   30.21 30.26      
Feb 20 09:56 SE 5   Clear   36 36     100% 32   30.21 30.26   0  
Feb 20 08:56 ESE 7   Clear   36 35     96% 30   30.22 30.27      
Feb 20 07:56 E 3   Clear   35 34     96% 32   30.2 30.25 0    
Feb 20 06:56 Calm   Clear   34 33     96%     30.18 30.24     0
Feb 20 05:56 NE 3   Clear   33 33     100% 30   30.18 30.23      
Feb 20 04:56 Calm   Clear   33 33     100%     30.18 30.23 0    
Feb 20 03:56 Calm   Clear   33 33     100%     30.17 30.22 0 0  
Feb 20 02:56 SE 3   Clear   33 33     100% 30     30.19 0    
Feb 20 01:56 ESE 3   Clear   33 33     100% 30     30.2      
Feb 20 00:56 SE 5   Clear   33 33     100% 29     30.21     0
Feb 19 23:56 E 5   Clear   33 33     100% 29     30.21      
Feb 19 22:56 ESE 6   Clear   32 32     100% 26     30.22      
Feb 19 21:56 E 6   Clear   32 32     100% 26     30.21   0  
Feb 19 20:56 3   Clear   32 32     100% 29   30.18 30.24 0    
Feb 19 19:56 SSE 7   Clear   32 29     88% 26     30.23 0    
Feb 19 18:56 SSE 6   Clear   32 27     81% 26   30.18 30.24      
Feb 19 17:56 SSE 6   Clear   33 25     72% 28   30.19 30.26      
Feb 19 16:56 S 8   Clear   35 24     64% 29   30.19 30.26      
Feb 19 15:56 S 10   Clear   37 23     56% 30   30.2 30.26      
Feb 19 14:56 S 10   Clear   38 24     57% 31   30.22 30.28      
Feb 19 13:56 S 9   Clear   37 23     56% 30   30.21 30.27      
Feb 19 12:56 S 14   Clear   36 23     59% 27   30.24 30.3      
Feb 19 11:56 S 13   Clear   34 22     61% 25   30.29 30.36      
Feb 19 10:56 S 11   Clear   31 21     66% 22   30.32 30.39      
Feb 19 09:56 SSE 9   Clear   30 21     69% 22   30.36 30.43      
Feb 19 08:56 SSE 7   Clear   26 18     71% 18     30.47      
Jun 11 22:56 6   Clear   76 61     60%   76 29.85 29.82      
Jun 11 18:56 6   Clear   82 57     43%   82 29.78 29.76      
Jun 10 13:56 5   Clear   71 37     29%   69 29.9 29.9      
Jun 10 05:56 6   Clear   48 41     77% 45   29.84 29.85      
Notice The following observation data may not be complete
Jun 08 11:56     Clear            %              
Jun 06 08:56 ENE 6   Clear   48 39     71% 45   29.97 29.99      
Jun 06 06:56 E 9   Clear   44 39     82% 39   29.98 30      
Notice The following observation data may not be complete
Jun 06 02:56     Clear            %